Meath Environmental Platform

Observations for Trim Patrick St

Time AQI Temp °C Hum % Pres Pa CO μg/m³ H₂S μg/m³ NO μg/m³ NO₂ μg/m³ O₃ μg/m³ SO₂ μg/m³ PM1 μg/m³ PM2.5 μg/m³ PM10 μg/m³
Saturday 8 August 2026
20:11 3 27.4 40 69,175 0 12.46 0.91 27.99 58.21 12.46 2.86 9.42 10.36
20:10 3 27.5 40 69,197 0 6.69 0.91 14.96 59.5 12.06 2 7.85 8.64
20:09 3 27.5 40 69,197 0 6.55 0.84 13.3 59.45 11.94 2 8.63 9.5
20:08 3 27.6 40 69,199 0 8.01 0.85 14.19 59.1 12.69 2 8.63 9.5
20:07 3 27.6 40 69,197 0 6.76 0.83 16.06 55.42 11.68 2.86 8.65 9.51
20:06 3 27.6 40 69,193 0 9.43 0.83 15.72 59.15 12.43 2.86 8.62 9.48
20:05 3 27.6 40 69,189 0 10.36 0.81 18.41 59.92 13.07 2.86 8.63 9.5
20:04 3 27.6 40 69,185 0 11.62 0.82 15.21 66.95 12.94 2.86 8.61 9.47
20:03 3 27.6 40 69,175 0 14.37 0.81 22.68 57.63 13.05 3.71 9.42 10.36
20:01 3 27.6 40 69,179 0 12.53 0.8 28.27 60.98 12.93 3.71 9.41 10.35
20:00 3 27.6 40 69,171 0 8.74 0.81 20.03 57.52 11.94 2 8.63 9.5
19:59 3 27.6 40 69,159 0 14.21 0.81 18.64 61.55 13.94 3.71 8.63 9.49
19:58 3 27.6 40 69,173 0 16.08 0.84 21.12 61.62 13.34 2 7.07 7.78
19:57 3 27.7 39 69,161 0 17.03 0.82 30.35 56.72 13.57 2.86 7.87 8.65
19:56 3 27.7 39 69,145 0 12.47 0.83 18.48 62.25 12.88 2 7.08 7.79
19:53 3 27.7 39 69,147 0 13.27 0.85 20.74 60.29 13.62 2.86 7.89 8.68
19:50 3 27.7 39 69,169 0 10.25 0.84 21.83 62.58 12.49 2.86 7.89 8.68
19:49 3 27.8 39 69,155 0 8.11 0.83 17.63 63.89 12.68 2.86 8.68 9.55
19:48 3 27.8 39 69,169 0 8.56 0.81 15.48 54.22 12 2.86 8.69 9.56
19:47 3 27.8 39 69,185 0 13.29 0.87 24.51 56.79 13.41 2.86 7.89 8.68